• In Belarus
  • List of Countries
  • For 7 days
  • Water Temperature
  • Satellite Maps
  • Weather Map
  • Weather Widgets
  • user-avatar
    Login

    Hourly Weather Kelarevo

    Today, 20 April, Friday

    Time Temperature Precipitation Wind Pressure Humidity
    00:00 +6°C° 0 mm 4 mps 748 mmHg 83%
    01:00 +5°C° 0 mm 4 mps 748 mmHg 86%
    02:00 +5°C° 0 mm 3 mps 749 mmHg 89%
    03:00 +4°C° 0 mm 3 mps 749 mmHg 93%
    04:00 +3°C° 0 mm 3 mps 750 mmHg 93%
    05:00 +3°C° 0 mm 3 mps 750 mmHg 93%
    06:00 +3°C° 0 mm 3 mps 750 mmHg 93%
    07:00 +3°C° 0 mm 4 mps 751 mmHg 86%
    08:00 +4°C° 0 mm 4 mps 751 mmHg 78%
    09:00 +5°C° 0 mm 4 mps 751 mmHg 71%
    10:00 +6°C° 0 mm 4 mps 751 mmHg 66%
    11:00 +7°C° 0 mm 4 mps 751 mmHg 62%
    12:00 +8°C° 0 mm 4 mps 752 mmHg 57%
    13:00 +8°C° 0 mm 4 mps 751 mmHg 56%
    14:00 +9°C° 0 mm 3 mps 751 mmHg 54%
    15:00 +10°C° 0 mm 3 mps 751 mmHg 53%
    16:00 +10°C° 0 mm 3 mps 751 mmHg 54%
    17:00 +10°C° 0 mm 2 mps 750 mmHg 56%
    18:00 +9°C° 0 mm 2 mps 750 mmHg 58%
    19:00 +8°C° 0 mm 2 mps 750 mmHg 64%
    20:00 +7°C° 0 mm 2 mps 749 mmHg 69%
    21:00 +7°C° 0 mm 2 mps 749 mmHg 75%
    22:00 +7°C° 0.2 mm 2 mps 748 mmHg 77%
    23:00 +7°C° 0.2 mm 3 mps 747 mmHg 79%

    Tomorrow, 21 April, Saturday

    Time Temperature Precipitation Wind Pressure Humidity
    00:00 +6°C° 0.2 mm 4 mps 746 mmHg 81%
    01:00 +6°C° 0.3 mm 4 mps 745 mmHg 82%
    02:00 +6°C° 0.3 mm 5 mps 744 mmHg 84%
    03:00 +6°C° 0.3 mm 5 mps 743 mmHg 85%
    04:00 +6°C° 0.4 mm 5 mps 742 mmHg 86%
    05:00 +6°C° 0.4 mm 5 mps 740 mmHg 87%
    06:00 +7°C° 0.4 mm 5 mps 739 mmHg 88%
    07:00 +7°C° 0.3 mm 5 mps 738 mmHg 87%
    08:00 +8°C° 0.3 mm 5 mps 737 mmHg 87%
    09:00 +8°C° 0.3 mm 5 mps 736 mmHg 87%
    10:00 +9°C° 1.2 mm 5 mps 735 mmHg 87%
    11:00 +9°C° 1.2 mm 5 mps 734 mmHg 88%
    12:00 +9°C° 1.2 mm 5 mps 733 mmHg 88%
    13:00 +9°C° 1.3 mm 5 mps 732 mmHg 89%
    14:00 +9°C° 1.3 mm 5 mps 731 mmHg 89%
    15:00 +10°C° 1.3 mm 5 mps 730 mmHg 89%
    16:00 +9°C° 0.5 mm 6 mps 729 mmHg 84%
    17:00 +9°C° 0.5 mm 7 mps 729 mmHg 79%
    18:00 +9°C° 0.5 mm 8 mps 728 mmHg 75%
    19:00 +7°C° 0.1 mm 8 mps 728 mmHg 77%
    20:00 +5°C° 0.1 mm 7 mps 728 mmHg 79%
    21:00 +4°C° 0.1 mm 7 mps 728 mmHg 81%
    22:00 +2°C° 0.7 mm 8 mps 729 mmHg 81%
    23:00 +2°C° 0.7 mm 9 mps 729 mmHg 81%

    Day after tomorrow, 22 April, Sunday

    Time Temperature Precipitation Wind Pressure Humidity
    00:00 +1°C° 0.7 mm 10 mps 730 mmHg 81%
    01:00 0°C° 0.4 mm 9 mps 730 mmHg 82%
    02:00 0°C° 0.4 mm 9 mps 731 mmHg 82%
    03:00 -1°C° 0.4 mm 9 mps 732 mmHg 82%
    04:00 -1°C° 0.2 mm 8 mps 733 mmHg 82%
    05:00 -2°C° 0.2 mm 8 mps 734 mmHg 82%
    06:00 -2°C° 0.2 mm 8 mps 735 mmHg 82%
    07:00 -2°C° 0.1 mm 8 mps 736 mmHg 80%
    08:00 -2°C° 0.1 mm 7 mps 736 mmHg 78%
    09:00 -2°C° 0.1 mm 7 mps 737 mmHg 76%
    10:00 -1°C° 0.1 mm 7 mps 738 mmHg 74%
    11:00 -1°C° 0.1 mm 7 mps 738 mmHg 72%
    12:00 -1°C° 0.1 mm 6 mps 739 mmHg 70%
    13:00 -1°C° 0 mm 6 mps 740 mmHg 69%
    14:00 -1°C° 0 mm 6 mps 740 mmHg 68%
    15:00 -1°C° 0 mm 6 mps 741 mmHg 67%
    16:00 -1°C° 0 mm 6 mps 741 mmHg 68%
    17:00 0°C° 0 mm 5 mps 742 mmHg 68%
    18:00 0°C° 0 mm 5 mps 742 mmHg 69%
    19:00 -1°C° 0 mm 4 mps 743 mmHg 71%
    20:00 -1°C° 0 mm 4 mps 743 mmHg 74%
    21:00 -1°C° 0 mm 3 mps 743 mmHg 76%
    22:00 -1°C° 0 mm 3 mps 744 mmHg 77%
    23:00 -1°C° 0 mm 3 mps 744 mmHg 79%

    23 April, Monday

    Time Temperature Precipitation Wind Pressure Humidity
    00:00 -2°C° 0 mm 3 mps 744 mmHg 80%
    01:00 -2°C° 0 mm 3 mps 744 mmHg 82%
    02:00 -4°C° 0 mm 3 mps 745 mmHg 83%
    03:00 -4°C° 0 mm 3 mps 745 mmHg 85%
    04:00 -4°C° 0 mm 3 mps 745 mmHg 84%
    05:00 -4°C° 0 mm 3 mps 746 mmHg 83%
    06:00 -4°C° 0 mm 3 mps 746 mmHg 82%
    07:00 -3°C° 0 mm 4 mps 746 mmHg 73%
    08:00 -2°C° 0 mm 4 mps 746 mmHg 63%
    09:00 0°C° 0 mm 5 mps 747 mmHg 54%
    10:00 0°C° 0 mm 5 mps 747 mmHg 52%
    11:00 +1°C° 0 mm 5 mps 747 mmHg 50%
    12:00 +3°C° 0 mm 4 mps 747 mmHg 47%
    13:00 +3°C° 0 mm 4 mps 747 mmHg 47%
    14:00 +3°C° 0 mm 4 mps 747 mmHg 47%
    15:00 +4°C° 0 mm 4 mps 747 mmHg 46%
    16:00 +3°C° 0 mm 4 mps 747 mmHg 48%
    17:00 +3°C° 0 mm 4 mps 748 mmHg 50%
    18:00 +3°C° 0 mm 3 mps 748 mmHg 52%
    19:00 +1°C° 0 mm 3 mps 748 mmHg 59%
    20:00 +1°C° 0 mm 2 mps 748 mmHg 65%
    21:00 +1°C° 0 mm 1 mps 748 mmHg 72%
    22:00 0°C° 0 mm 1 mps 748 mmHg 73%
    23:00 0°C° 0 mm 1 mps 749 mmHg 75%

    24 April, Tuesday

    Time Temperature Precipitation Wind Pressure Humidity
    00:00 -1°C° 0 mm 1 mps 749 mmHg 77%
    01:00 -1°C° 0 mm 1 mps 749 mmHg 78%
    02:00 -1°C° 0 mm 1 mps 749 mmHg 79%
    03:00 -1°C° 0 mm 1 mps 749 mmHg 80%
    04:00 -1°C° 0 mm 1 mps 749 mmHg 78%
    05:00 -1°C° 0 mm 1 mps 749 mmHg 77%
    06:00 -2°C° 0 mm 0 mps 749 mmHg 76%
    07:00 +1°C° 0 mm 1 mps 749 mmHg 67%
    08:00 +3°C° 0 mm 1 mps 749 mmHg 59%
    09:00 +4°C° 0 mm 1 mps 749 mmHg 51%
    10:00 +5°C° 0 mm 1 mps 749 mmHg 48%
    11:00 +6°C° 0 mm 1 mps 749 mmHg 45%
    12:00 +7°C° 0 mm 1 mps 749 mmHg 42%
    13:00 +8°C° 0 mm 1 mps 748 mmHg 41%
    14:00 +8°C° 0 mm 1 mps 748 mmHg 41%
    15:00 +9°C° 0 mm 1 mps 748 mmHg 40%
    16:00 +8°C° 0 mm 1 mps 748 mmHg 42%
    17:00 +8°C° 0 mm 1 mps 747 mmHg 43%
    18:00 +7°C° 0 mm 1 mps 747 mmHg 45%
    19:00 +5°C° 0 mm 2 mps 747 mmHg 52%
    20:00 +3°C° 0 mm 2 mps 747 mmHg 59%
    21:00 +1°C° 0 mm 2 mps 747 mmHg 66%
    22:00 +1°C° 0 mm 2 mps 747 mmHg 68%
    23:00 -1°C° 0 mm 3 mps 747 mmHg 70%

    25 April, Wednesday

    Time Temperature Precipitation Wind Pressure Humidity
    00:00 -1°C° 0 mm 3 mps 747 mmHg 72%
    01:00 -1°C° 0 mm 3 mps 747 mmHg 72%
    02:00 -1°C° 0 mm 3 mps 747 mmHg 73%
    03:00 -2°C° 0 mm 3 mps 747 mmHg 74%
    04:00 -1°C° 0 mm 3 mps 747 mmHg 72%
    05:00 -1°C° 0 mm 3 mps 747 mmHg 71%
    06:00 -1°C° 0 mm 3 mps 747 mmHg 70%
    07:00 +1°C° 0 mm 3 mps 747 mmHg 64%
    08:00 +3°C° 0 mm 3 mps 746 mmHg 57%
    09:00 +5°C° 0 mm 4 mps 746 mmHg 51%
    10:00 +6°C° 0 mm 4 mps 746 mmHg 48%
    11:00 +8°C° 0 mm 4 mps 746 mmHg 45%
    12:00 +9°C° 0 mm 5 mps 746 mmHg 42%
    13:00 +9°C° 0 mm 5 mps 746 mmHg 45%
    14:00 +9°C° 0 mm 5 mps 745 mmHg 48%
    15:00 +9°C° 0 mm 5 mps 745 mmHg 50%
    16:00 +9°C° 0 mm 5 mps 745 mmHg 56%
    17:00 +8°C° 0 mm 5 mps 745 mmHg 61%
    18:00 +7°C° 0 mm 4 mps 744 mmHg 67%
    19:00 +7°C° 0 mm 4 mps 744 mmHg 72%
    20:00 +6°C° 0 mm 4 mps 744 mmHg 77%
    21:00 +6°C° 0 mm 4 mps 744 mmHg 82%
    22:00 +5°C° 0 mm 4 mps 743 mmHg 84%
    23:00 +5°C° 0 mm 4 mps 743 mmHg 87%
    Show more